Location: ?????????
(54.7630°N, 39.4991°E)
Time: 05:37:23
(UTC+00:00)

NOSS 2-1 (C) - Pass Details

Date: 14 April 2026
Orbit: 374 x 1679 km, 63.3° (Epoch: 10 May)

Event Time Altitude Azimuth Distance (km) Brightness Sun altitude
Rises 19:02:03 0° 306° (NW) 2,303 7.9 -19.2°
Reaches altitude 10° 19:03:59 10° 298° (WNW) 1,506 6.5 -19.4°
Maximum altitude 19:07:02 40° 227° (SW) 719 3.8 -19.6°
Enters shadow 19:07:21 39° 213° (SSW) 741 3.8 -19.7°
